Content
SEND FEEDBACK

Daily
Averages
Monthly
Summary
Canada

VANCOUVER, BRITISH COLUMBIA


Home > North America > Canada > British Columbia
Elevation: 7 feet     Latitude: 49 11N     Longitude: 123 10W

WEATHER
 
SELECT A DAY
Number of Records: 254,138;   Date Range: 5/15/97 - 11/26/14
 
SHARE

PRINT THIS DATA

[ ← Previous Day ]
WEATHER ALMANAC - MARCH 31, 2013
[ Next Day → ]
[ °C ]   °F
Weather ElementAverageHighLow
Temperature49.1 °F57.2 °F (6:15 pm)44.6 °F (3:15 am)
Dewpoint43.4 °F46.4 °F (7:55 am)39.2 °F (5:55 pm)
Humidity81.7 %100 % (3:15 am)51 % (6:15 pm)
Barometer30.01 in30.09 in (12:35 am)29.91 in (7:55 pm)
Wind Speed2 mph8.1 mph (12:35 pm)
Weather ElementAverage
Visibility9.8 mi
Wind DirectionESE (114.3 °)

Weather ElementTotal
Precipitation---
Heating Degree Days14.1 (Base 65)
Growing Degree Days0.9 (Base 50)
Averaged from 70 records on March 31, 2013
WEATHER CONDITIONS BREAKOUT
WIND DIRECTION BREAKOUT
WEATHER BY HOUR - MARCH 31, 2013
[ °C ]   °F
Local TimeTemperatureDewpointHumidityBarometerVisibilityWind DirectionWind SpeedGust SpeedPrecipitationEventsConditions
12:35 AM48.2 °F42.8 °F82 %30.09 in10.0 miNNW (340°)3.5 mphClear
12:55 AM48.2 °F42.8 °F82 %30.09 in10.0 miCalmClear
1:15 AM48.2 °F44.6 °F87 %30.09 in10.0 miCalmClear
1:35 AM46.4 °F44.6 °F93 %30.09 in10.0 miCalmClear
1:55 AM46.4 °F44.6 °F93 %30.08 in10.0 miCalmClear
2:15 AM46.4 °F44.6 °F93 %30.08 in10.0 miCalmClear
2:35 AM46.4 °F44.6 °F93 %30.07 in10.0 miCalmClear
2:55 AM46.4 °F44.6 °F93 %30.07 in10.0 miCalmClear
3:15 AM44.6 °F44.6 °F100 %30.07 in10.0 miCalmClear
3:35 AM44.6 °F44.6 °F100 %30.07 in10.0 miCalmClear
3:55 AM44.6 °F42.8 °F93 %30.06 in10.0 miCalmClear
4:15 AM44.6 °F42.8 °F93 %30.06 in10.0 miCalmClear
4:35 AM44.6 °F44.6 °F100 %30.06 in10.0 miCalmClear
4:55 AM46.4 °F44.6 °F93 %30.05 in10.0 miCalmClear
5:15 AM46.4 °F44.6 °F93 %30.05 in10.0 miCalmClear
5:35 AM46.4 °F44.6 °F93 %30.05 in10.0 miNorth (360°)3.5 mphClear
5:55 AM46.4 °F44.6 °F93 %30.05 in10.0 miNorth (350°)4.6 mphClear
6:15 AM46.4 °F44.6 °F93 %30.05 in10.0 miNorth (350°)5.8 mphClear
6:35 AM44.6 °F44.6 °F100 %30.05 in10.0 miCalmClear
6:55 AM44.6 °F44.6 °F100 %30.05 in10.0 miCalmClear
7:15 AM44.6 °F44.6 °F100 %30.05 in9.0 miCalmClear
7:35 AM46.4 °F44.6 °F93 %30.05 in9.0 miCalmClear
7:55 AM46.4 °F46.4 °F100 %30.05 in9.0 miCalmClear
8:15 AM46.4 °F46.4 °F100 %30.05 in9.0 miCalmClear
8:35 AM48.2 °F46.4 °F93 %30.06 in9.0 miCalmClear
8:55 AM48.2 °F46.4 °F93 %30.05 in10.0 miNorth (360°)5.8 mphClear
9:15 AM48.2 °F46.4 °F93 %30.05 in10.0 miNorth (10°)4.6 mphClear
9:35 AM48.2 °F46.4 °F93 %30.05 in10.0 miNorth (360°)6.9 mphPartly Cloudy
9:55 AM48.2 °F46.4 °F93 %30.05 in10.0 miNorth (360°)5.8 mphClear
10:15 AM50.0 °F46.4 °F87 %30.05 in10.0 miNorth (350°)6.9 mphClear
10:35 AM50.0 °F46.4 °F87 %30.05 in9.0 miNNW (340°)5.8 mphClear
10:55 AM50.0 °F46.4 °F87 %30.05 in10.0 miNW (320°)3.5 mphClear
11:15 AM50.0 °F46.4 °F87 %30.05 in10.0 miNorth (360°)4.6 mphClear
11:35 AM50.0 °F46.4 °F87 %30.05 in10.0 miCalmClear
11:55 AM50.0 °F46.4 °F87 %30.05 in10.0 miNorth (360°)4.6 mphClear
12:15 PM50.0 °F46.4 °F87 %30.05 in10.0 miNorth (360°)5.8 mphClear
12:35 PM50.0 °F46.4 °F87 %30.04 in10.0 miNorth (350°)8.1 mphClear
1:15 PM51.8 °F46.4 °F82 %30.03 in10.0 miNNW (330°)6.9 mphClear
1:35 PM51.8 °F46.4 °F82 %30.02 in10.0 miNNW (330°)8.1 mphClear
1:55 PM53.6 °F44.6 °F72 %30.02 in10.0 miNNW (340°)6.9 mphClear
2:15 PM51.8 °F44.6 °F76 %30.01 in9.0 miNorth (350°)5.8 mphClear
2:35 PM53.6 °F44.6 °F72 %30.01 in10.0 miNNW (330°)5.8 mphClear
2:55 PM53.6 °F44.6 °F72 %30.00 in10.0 miNNW (340°)8.1 mphClear
3:15 PM53.6 °F42.8 °F67 %29.99 in10.0 miNorth (350°)3.5 mphClear
3:35 PM53.6 °F44.6 °F72 %29.99 in10.0 miNorth (350°)4.6 mphClear
3:55 PM53.6 °F44.6 °F72 %29.98 in10.0 miCalmClear
4:15 PM53.6 °F44.6 °F72 %29.97 in10.0 miNorth (350°)4.6 mphClear
4:35 PM53.6 °F42.8 °F67 %29.96 in10.0 miCalmClear
4:55 PM55.4 °F42.8 °F63 %29.96 in10.0 miCalmClear
5:15 PM55.4 °F41.0 °F58 %29.95 in10.0 miCalmClear
5:35 PM55.4 °F41.0 °F58 %29.95 in10.0 miCalmClear
5:55 PM55.4 °F39.2 °F54 %29.94 in10.0 miCalmClear
6:15 PM57.2 °F39.2 °F51 %29.93 in10.0 miCalmClear
6:35 PM57.2 °F39.2 °F51 %29.93 in10.0 miCalmClear
6:55 PM57.2 °F39.2 °F51 %29.92 in10.0 miCalmClear
7:15 PM53.6 °F41.0 °F62 %29.92 in10.0 miCalmClear
7:35 PM51.8 °F41.0 °F67 %29.92 in10.0 miCalmClear
7:55 PM50.0 °F41.0 °F71 %29.91 in10.0 miCalmClear
8:15 PM50.0 °F41.0 °F71 %29.91 in10.0 miCalmClear
8:35 PM48.2 °F39.2 °F71 %29.91 in10.0 miCalmClear
8:55 PM48.2 °F39.2 °F71 %29.92 in7.0 miCalmClear
9:15 PM48.2 °F39.2 °F71 %29.92 in10.0 miCalmClear
9:35 PM48.2 °F39.2 °F71 %29.92 in9.0 miCalmClear
9:55 PM46.4 °F39.2 °F76 %29.93 in9.0 miCalmClear
10:15 PM46.4 °F39.2 °F76 %29.93 in8.0 miCalmClear
10:35 PM46.4 °F39.2 °F76 %29.93 in10.0 miCalmClear
10:55 PM44.6 °F39.2 °F81 %29.94 in10.0 miCalmClear
11:15 PM44.6 °F39.2 °F81 %29.94 in7.0 miNorthClear
11:35 PM44.6 °F39.2 °F81 %29.94 in10.0 miCalmClear
11:55 PM44.6 °F39.2 °F81 %29.94 in10.0 miNorthClear
Hourly data recorded from CZBB, located miles away from Vancouver, British Columbia







STORIES FROM OUR PARTNERS